Hamilton Island Airport, Australia

5:11 AM AEST on February 11, 2016 (GMT +1000)
Hamilton Island

Weather History for YBHM - January, 2013

Change the Weather History Date:

Saturday, January 12, 2013

  Actual Average Record
Temperature  
Mean Temperature 82 °F -  
Max Temperature 86 °F - - ()
Min Temperature 79 °F - - ()
Cooling Degree Days 18    
Growing Degree Days 32 (Base 50)    
Moisture  
Dew Point 75 °F    
Average Humidity 80    
Maximum Humidity 89    
Minimum Humidity 68    
Precipitation  
Precipitation 0.00 in - - ()
Sea Level Pressure  
Sea Level Pressure 29.87 in    
Wind  
Wind Speed 13 mph ()    
Max Wind Speed 17 mph    
Max Gust Speed -    
T = Trace of Precipitation, MM = Missing Value Source: Averaged Metar Reports

Daily Weather History Graph

Daily Weather History Graph

Search for Another Location

Airport or City:

Trip Planner

Search our weather history database for the weather conditions in past years. The results will help you decide how hot, cold, wet, or windy it might be!

Date:

Astronomy

Jan. 12, 2013 Rise Set
Actual Time 5:34 AM AEST 6:50 PM AEST
Civil Twilight 5:10 AM AEST 7:14 PM AEST
Nautical Twilight 4:41 AM AEST 7:43 PM AEST
Astronomical Twilight 4:11 AM AEST 8:12 PM AEST
Moon 5:43 AM AEST (1/12) 7:03 PM AEST (1/12)
Length of Visible Light 14h 04m
Length of Day
13h 15m
New Moon, 0% of the Moon is Illuminated
Jan 12
New Moon
Jan 19
First Quarter
Jan 27
Full
Feb 3
Last Quarter
Feb 10
New

Hourly Weather History & Observations

Time (AEST) Temp. Heat Index Dew Point Humidity Pressure Visibility Wind Dir Wind Speed Gust Speed Precip Events Conditions
12:00 AM 81 °F - 76 °F 82% 29.87 in - East 15.0 mph - -  
12:00 AM 80.6 °F 87.1 °F 77.0 °F 89% 29.86 in - East 15.0 mph - N/A   Unknown
12:30 AM 80.6 °F 87.1 °F 77.0 °F 89% 29.86 in - East 13.8 mph - N/A   Unknown
1:00 AM 80.6 °F 86.2 °F 75.2 °F 84% 29.86 in - East 13.8 mph - N/A   Unknown
1:30 AM 80.6 °F 86.2 °F 75.2 °F 84% 29.86 in - East 13.8 mph - N/A   Unknown
2:00 AM 80.6 °F 86.2 °F 75.2 °F 84% 29.86 in - East 13.8 mph - N/A   Unknown
2:30 AM 80.6 °F 86.2 °F 75.2 °F 84% 29.86 in - East 16.1 mph - N/A   Unknown
3:00 AM 80 °F - 75 °F 82% 29.84 in - East 12.7 mph - -  
3:00 AM 80.6 °F 86.2 °F 75.2 °F 84% 29.83 in - East 12.7 mph - N/A   Unknown
3:30 AM 80.6 °F 86.2 °F 75.2 °F 84% 29.83 in - East 13.8 mph - N/A   Unknown
4:00 AM 80.6 °F 86.2 °F 75.2 °F 84% 29.83 in - East 12.7 mph - N/A   Unknown
4:30 AM 80.6 °F 86.2 °F 75.2 °F 84% 29.86 in - East 16.1 mph - N/A   Unknown
5:00 AM 80.6 °F 86.2 °F 75.2 °F 84% 29.86 in - East 13.8 mph - N/A   Unknown
5:30 AM 80.6 °F 85.4 °F 73.4 °F 79% 29.86 in - East 13.8 mph - N/A   Unknown
6:00 AM 80 °F - 75 °F 80% 29.88 in - East 11.5 mph - -  
6:00 AM 80.6 °F 86.2 °F 75.2 °F 84% 29.89 in - East 11.5 mph - N/A   Unknown
6:30 AM 80.6 °F 86.2 °F 75.2 °F 84% 29.89 in - East 11.5 mph - N/A   Unknown
7:00 AM 82.4 °F 89.5 °F 75.2 °F 79% 29.89 in - East 12.7 mph - N/A   Unknown
7:30 AM 82.4 °F 89.5 °F 75.2 °F 79% 29.89 in - East 12.7 mph - N/A   Unknown
8:00 AM 82.4 °F 89.5 °F 75.2 °F 79% 29.89 in - East 12.7 mph - N/A   Unknown
8:30 AM 84.2 °F 90.9 °F 73.4 °F 70% 29.89 in - East 12.7 mph - N/A   Unknown
9:00 AM 84 °F - 76 °F 71% 29.90 in - East 12.7 mph - -  
9:00 AM 84.2 °F 94.1 °F 77.0 °F 79% 29.89 in - East 12.7 mph - N/A   Unknown
9:30 AM 84.2 °F 94.1 °F 77.0 °F 79% 29.89 in - East 10.4 mph - N/A   Unknown
10:00 AM 84.2 °F 92.3 °F 75.2 °F 74% 29.89 in - East 12.7 mph - N/A   Unknown
10:30 AM 86.0 °F 96.9 °F 77.0 °F 74% 29.92 in - East 12.7 mph - N/A   Unknown
11:00 AM 84.2 °F 92.3 °F 75.2 °F 74% 29.92 in - East 12.7 mph - N/A   Unknown
11:30 AM 84.2 °F 92.3 °F 75.2 °F 74% 29.89 in - East 12.7 mph - N/A   Unknown
12:00 PM 85 °F - 76 °F 69% 29.90 in - East 13.8 mph - -  
12:00 PM 84.2 °F 94.1 °F 77.0 °F 79% 29.89 in - East 13.8 mph - N/A   Unknown
12:30 PM 84.2 °F 92.3 °F 75.2 °F 74% 29.89 in - East 12.7 mph - N/A   Unknown
1:00 PM 84.2 °F 90.9 °F 73.4 °F 70% 29.89 in - East 15.0 mph - N/A   Unknown
1:30 PM 84.2 °F 92.3 °F 75.2 °F 74% 29.86 in - East 13.8 mph - N/A   Unknown
2:00 PM 86.0 °F 96.9 °F 77.0 °F 74% 29.86 in - East 11.5 mph - N/A   Unknown
2:30 PM 84.2 °F 90.9 °F 73.4 °F 70% 29.86 in - East 10.4 mph - N/A   Unknown
3:00 PM 84 °F - 75 °F 68% 29.85 in - East 10.4 mph - -  
3:00 PM 84.2 °F 92.3 °F 75.2 °F 74% 29.86 in - East 10.4 mph - N/A   Unknown
3:30 PM 84.2 °F 92.3 °F 75.2 °F 74% 29.86 in - East 12.7 mph - N/A   Unknown
4:00 PM 84.2 °F 92.3 °F 75.2 °F 74% 29.86 in - East 11.5 mph - N/A   Unknown
4:30 PM 82.4 °F 89.5 °F 75.2 °F 79% 29.83 in - East 13.8 mph - N/A   Unknown
5:00 PM 82.4 °F 89.5 °F 75.2 °F 79% 29.83 in - East 13.8 mph - N/A   Unknown
5:30 PM 82.4 °F 89.5 °F 75.2 °F 79% 29.86 in - East 13.8 mph - N/A   Unknown
6:00 PM 82 °F - 76 °F 78% 29.86 in - East 15.0 mph - -  
6:00 PM 82.4 °F 90.9 °F 77.0 °F 84% 29.86 in - East 15.0 mph - N/A   Unknown
6:30 PM 80.6 °F 86.2 °F 75.2 °F 84% 29.86 in - East 15.0 mph - N/A   Unknown
7:00 PM 80.6 °F 86.2 °F 75.2 °F 84% 29.86 in - East 15.0 mph - N/A   Unknown
8:00 PM 80.6 °F 86.2 °F 75.2 °F 84% 29.86 in - East 15.0 mph - N/A   Unknown
8:30 PM 80.6 °F 86.2 °F 75.2 °F 84% 29.86 in - East 13.8 mph - N/A   Unknown
9:00 PM 80 °F - 75 °F 81% 29.87 in - East 15.0 mph - -  
9:00 PM 80.6 °F 86.2 °F 75.2 °F 84% 29.86 in - East 15.0 mph - N/A   Unknown
9:30 PM 80.6 °F 86.2 °F 75.2 °F 84% 29.86 in - East 17.3 mph - N/A   Unknown
10:00 PM 80.6 °F 86.2 °F 75.2 °F 84% 29.89 in - East 15.0 mph - N/A   Unknown
10:30 PM 80.6 °F 86.2 °F 75.2 °F 84% 29.89 in - East 16.1 mph - N/A   Unknown
11:00 PM 80.6 °F 86.2 °F 75.2 °F 84% 29.86 in - ENE 13.8 mph - N/A   Unknown
11:30 PM 80.6 °F 86.2 °F 75.2 °F 84% 29.86 in - East 15.0 mph - N/A   Unknown